owner,sensor,date,latitude,longitude,air_pressure(mBar),qcFlag 
COMPS,ioos:station:USF.COMPS:C13:1,2015-03-01T00:05:00Z,26.0630,-83.0730,1021.94,1111122 
COMPS,ioos:station:USF.COMPS:C13:1,2015-03-01T00:35:00Z,26.0630,-83.0730,1022.22,1111122 
COMPS,ioos:station:USF.COMPS:C13:1,2015-03-01T01:05:00Z,26.0630,-83.0730,1022.34,1111122 
COMPS,ioos:station:USF.COMPS:C13:1,2015-03-01T01:35:00Z,26.0630,-83.0730,1022.7,1111122 
COMPS,ioos:station:USF.COMPS:C13:1,2015-03-01T02:05:00Z,26.0630,-83.0730,1023.13,1111122 
COMPS,ioos:station:USF.COMPS:C13:1,2015-03-01T02:35:00Z,26.0630,-83.0730,1023.31,1111122 
COMPS,ioos:station:USF.COMPS:C13:1,2015-03-01T03:05:00Z,26.0630,-83.0730,1023.58,1111122 
COMPS,ioos:station:USF.COMPS:C13:1,2015-03-01T03:35:00Z,26.0630,-83.0730,1023.6,1111122 
COMPS,ioos:station:USF.COMPS:C13:1,2015-03-01T04:05:00Z,26.0630,-83.0730,1023.49,1111122 
COMPS,ioos:station:USF.COMPS:C13:1,2015-03-01T04:35:00Z,26.0630,-83.0730,1023.35,1111122 
COMPS,ioos:station:USF.COMPS:C13:1,2015-03-01T05:05:00Z,26.0630,-83.0730,1023.18,1111122 
COMPS,ioos:station:USF.COMPS:C13:1,2015-03-01T05:35:00Z,26.0630,-83.0730,1023.1,1111122 
COMPS,ioos:station:USF.COMPS:C13:1,2015-03-01T06:05:00Z,26.0630,-83.0730,1023.01,1111122 
COMPS,ioos:station:USF.COMPS:C13:1,2015-03-01T06:35:00Z,26.0630,-83.0730,1022.76,1111122 
COMPS,ioos:station:USF.COMPS:C13:1,2015-03-01T07:05:00Z,26.0630,-83.0730,1022.59,1111122 
COMPS,ioos:station:USF.COMPS:C13:1,2015-03-01T07:35:00Z,26.0630,-83.0730,1022.24,1111122 
COMPS,ioos:station:USF.COMPS:C13:1,2015-03-01T08:05:00Z,26.0630,-83.0730,1022.24,1111122 
COMPS,ioos:station:USF.COMPS:C13:1,2015-03-01T08:35:00Z,26.0630,-83.0730,1022.25,1111122 
COMPS,ioos:station:USF.COMPS:C13:1,2015-03-01T09:05:00Z,26.0630,-83.0730,1022.11,1111122 
COMPS,ioos:station:USF.COMPS:C13:1,2015-03-01T09:35:00Z,26.0630,-83.0730,1022.1,1111122 
COMPS,ioos:station:USF.COMPS:C13:1,2015-03-01T10:05:00Z,26.0630,-83.0730,1022.25,1111122 
COMPS,ioos:station:USF.COMPS:C13:1,2015-03-01T10:35:00Z,26.0630,-83.0730,1022.48,1111122 
COMPS,ioos:station:USF.COMPS:C13:1,2015-03-01T11:05:00Z,26.0630,-83.0730,1022.77,1111122 
COMPS,ioos:station:USF.COMPS:C13:1,2015-03-01T11:35:00Z,26.0630,-83.0730,1022.98,1111122 
COMPS,ioos:station:USF.COMPS:C13:1,2015-03-01T12:05:00Z,26.0630,-83.0730,1023.3,1111122 
COMPS,ioos:station:USF.COMPS:C13:1,2015-03-01T12:35:00Z,26.0630,-83.0730,1023.61,1111122 
COMPS,ioos:station:USF.COMPS:C13:1,2015-03-01T13:05:00Z,26.0630,-83.0730,1023.85,1111122 
COMPS,ioos:station:USF.COMPS:C13:1,2015-03-01T13:35:00Z,26.0630,-83.0730,1024.19,1111122 
COMPS,ioos:station:USF.COMPS:C13:1,2015-03-01T14:05:00Z,26.0630,-83.0730,1024.51,1111122 
COMPS,ioos:station:USF.COMPS:C13:1,2015-03-01T14:35:00Z,26.0630,-83.0730,1024.56,1111122 
COMPS,ioos:station:USF.COMPS:C13:1,2015-03-01T15:05:00Z,26.0630,-83.0730,1024.75,1111122 
COMPS,ioos:station:USF.COMPS:C13:1,2015-03-01T15:35:00Z,26.0630,-83.0730,1024.75,1111122 
COMPS,ioos:station:USF.COMPS:C13:1,2015-03-01T16:05:00Z,26.0630,-83.0730,1024.81,1111122 
COMPS,ioos:station:USF.COMPS:C13:1,2015-03-01T16:35:00Z,26.0630,-83.0730,1024.73,1111122 
COMPS,ioos:station:USF.COMPS:C13:1,2015-03-01T17:05:00Z,26.0630,-83.0730,1024.36,1111122 
COMPS,ioos:station:USF.COMPS:C13:1,2015-03-01T17:35:00Z,26.0630,-83.0730,1024.06,1111122 
COMPS,ioos:station:USF.COMPS:C13:1,2015-03-01T18:05:00Z,26.0630,-83.0730,1023.66,1111122 
COMPS,ioos:station:USF.COMPS:C13:1,2015-03-01T18:35:00Z,26.0630,-83.0730,1023.29,1111122 
COMPS,ioos:station:USF.COMPS:C13:1,2015-03-01T19:05:00Z,26.0630,-83.0730,1022.97,1111122 
COMPS,ioos:station:USF.COMPS:C13:1,2015-03-01T19:35:00Z,26.0630,-83.0730,1022.57,1111122 
COMPS,ioos:station:USF.COMPS:C13:1,2015-03-01T20:05:00Z,26.0630,-83.0730,1022.56,1111122 
COMPS,ioos:station:USF.COMPS:C13:1,2015-03-01T20:35:00Z,26.0630,-83.0730,1022.17,1111122 
COMPS,ioos:station:USF.COMPS:C13:1,2015-03-01T21:05:00Z,26.0630,-83.0730,1022.06,1111122 
COMPS,ioos:station:USF.COMPS:C13:1,2015-03-01T21:35:00Z,26.0630,-83.0730,1021.85,1111122 
COMPS,ioos:station:USF.COMPS:C13:1,2015-03-01T22:05:00Z,26.0630,-83.0730,1021.82,1111122 
COMPS,ioos:station:USF.COMPS:C13:1,2015-03-01T22:35:00Z,26.0630,-83.0730,1021.9,1111122 
COMPS,ioos:station:USF.COMPS:C13:1,2015-03-01T23:05:00Z,26.0630,-83.0730,1021.89,1111122 
COMPS,ioos:station:USF.COMPS:C13:1,2015-03-01T23:35:00Z,26.0630,-83.0730,1022.11,1111122 
COMPS,ioos:station:USF.COMPS:C13:1,2015-03-02T00:05:00Z,26.0630,-83.0730,1022.25,1111122 
COMPS,ioos:station:USF.COMPS:C13:1,2015-03-02T00:35:00Z,26.0630,-83.0730,1022.58,1111122 
COMPS,ioos:station:USF.COMPS:C13:1,2015-03-02T01:05:00Z,26.0630,-83.0730,1022.75,1111122 
COMPS,ioos:station:USF.COMPS:C13:1,2015-03-02T01:35:00Z,26.0630,-83.0730,1023.08,1111122 
COMPS,ioos:station:USF.COMPS:C13:1,2015-03-02T02:05:00Z,26.0630,-83.0730,1023.49,1111122 
COMPS,ioos:station:USF.COMPS:C13:1,2015-03-02T02:35:00Z,26.0630,-83.0730,1023.67,1111122 
COMPS,ioos:station:USF.COMPS:C13:1,2015-03-02T03:05:00Z,26.0630,-83.0730,1023.82,1111122 
COMPS,ioos:station:USF.COMPS:C13:1,2015-03-02T03:35:00Z,26.0630,-83.0730,1023.65,1111122 
COMPS,ioos:station:USF.COMPS:C13:1,2015-03-02T04:05:00Z,26.0630,-83.0730,1023.66,1111122 
COMPS,ioos:station:USF.COMPS:C13:1,2015-03-02T04:35:00Z,26.0630,-83.0730,1023.73,1111122 
COMPS,ioos:station:USF.COMPS:C13:1,2015-03-02T05:05:00Z,26.0630,-83.0730,1023.66,1111122 
COMPS,ioos:station:USF.COMPS:C13:1,2015-03-02T05:35:00Z,26.0630,-83.0730,1023.39,1111122 
COMPS,ioos:station:USF.COMPS:C13:1,2015-03-02T06:05:00Z,26.0630,-83.0730,1023.18,1111122 
COMPS,ioos:station:USF.COMPS:C13:1,2015-03-02T06:35:00Z,26.0630,-83.0730,1023.07,1111122 
COMPS,ioos:station:USF.COMPS:C13:1,2015-03-02T07:05:00Z,26.0630,-83.0730,1022.79,1111122 
COMPS,ioos:station:USF.COMPS:C13:1,2015-03-02T07:35:00Z,26.0630,-83.0730,1022.24,1111122 
COMPS,ioos:station:USF.COMPS:C13:1,2015-03-02T08:05:00Z,26.0630,-83.0730,1022.04,1111122 
COMPS,ioos:station:USF.COMPS:C13:1,2015-03-02T08:35:00Z,26.0630,-83.0730,1021.97,1111122 
COMPS,ioos:station:USF.COMPS:C13:1,2015-03-02T09:05:00Z,26.0630,-83.0730,1021.88,1111122 
COMPS,ioos:station:USF.COMPS:C13:1,2015-03-02T09:35:00Z,26.0630,-83.0730,1021.93,1111122 
COMPS,ioos:station:USF.COMPS:C13:1,2015-03-02T10:05:00Z,26.0630,-83.0730,1022.12,1111122 
COMPS,ioos:station:USF.COMPS:C13:1,2015-03-02T10:35:00Z,26.0630,-83.0730,1022.29,1111122 
COMPS,ioos:station:USF.COMPS:C13:1,2015-03-02T11:05:00Z,26.0630,-83.0730,1022.77,1111122 
COMPS,ioos:station:USF.COMPS:C13:1,2015-03-02T11:35:00Z,26.0630,-83.0730,1022.79,1111122 
COMPS,ioos:station:USF.COMPS:C13:1,2015-03-02T12:05:00Z,26.0630,-83.0730,1023.0,1111122 
COMPS,ioos:station:USF.COMPS:C13:1,2015-03-02T12:35:00Z,26.0630,-83.0730,1022.93,1111122 
COMPS,ioos:station:USF.COMPS:C13:1,2015-03-02T13:05:00Z,26.0630,-83.0730,1023.27,1111122 
COMPS,ioos:station:USF.COMPS:C13:1,2015-03-02T13:35:00Z,26.0630,-83.0730,1023.33,1111122 
COMPS,ioos:station:USF.COMPS:C13:1,2015-03-02T14:05:00Z,26.0630,-83.0730,1023.33,1111122 
COMPS,ioos:station:USF.COMPS:C13:1,2015-03-02T14:35:00Z,26.0630,-83.0730,1023.55,1111122 
COMPS,ioos:station:USF.COMPS:C13:1,2015-03-02T15:05:00Z,26.0630,-83.0730,1023.63,1111122 
COMPS,ioos:station:USF.COMPS:C13:1,2015-03-02T15:35:00Z,26.0630,-83.0730,1023.73,1111122 
COMPS,ioos:station:USF.COMPS:C13:1,2015-03-02T16:05:00Z,26.0630,-83.0730,1023.55,1111122 
COMPS,ioos:station:USF.COMPS:C13:1,2015-03-02T16:35:00Z,26.0630,-83.0730,1023.34,1111122 
COMPS,ioos:station:USF.COMPS:C13:1,2015-03-02T17:05:00Z,26.0630,-83.0730,1022.98,1111122 
COMPS,ioos:station:USF.COMPS:C13:1,2015-03-02T17:35:00Z,26.0630,-83.0730,1022.54,1111122 
COMPS,ioos:station:USF.COMPS:C13:1,2015-03-02T18:05:00Z,26.0630,-83.0730,1022.08,1111122 
COMPS,ioos:station:USF.COMPS:C13:1,2015-03-02T18:35:00Z,26.0630,-83.0730,1021.63,1111122 
COMPS,ioos:station:USF.COMPS:C13:1,2015-03-02T19:05:00Z,26.0630,-83.0730,1021.16,1111122 
COMPS,ioos:station:USF.COMPS:C13:1,2015-03-02T19:35:00Z,26.0630,-83.0730,1020.89,1111122 
COMPS,ioos:station:USF.COMPS:C13:1,2015-03-02T20:05:00Z,26.0630,-83.0730,1020.59,1111122 
COMPS,ioos:station:USF.COMPS:C13:1,2015-03-02T20:35:00Z,26.0630,-83.0730,1020.3,1111122 
COMPS,ioos:station:USF.COMPS:C13:1,2015-03-02T21:05:00Z,26.0630,-83.0730,1020.32,1111122 
COMPS,ioos:station:USF.COMPS:C13:1,2015-03-02T21:35:00Z,26.0630,-83.0730,1020.34,1111122 
COMPS,ioos:station:USF.COMPS:C13:1,2015-03-02T22:05:00Z,26.0630,-83.0730,1020.35,1111122 
COMPS,ioos:station:USF.COMPS:C13:1,2015-03-02T22:35:00Z,26.0630,-83.0730,1020.28,1111122 
COMPS,ioos:station:USF.COMPS:C13:1,2015-03-02T23:05:00Z,26.0630,-83.0730,1020.32,1111122 
COMPS,ioos:station:USF.COMPS:C13:1,2015-03-02T23:35:00Z,26.0630,-83.0730,1020.34,1111122 
COMPS,ioos:station:USF.COMPS:C13:1,2015-03-03T00:05:00Z,26.0630,-83.0730,1020.39,1111122 
COMPS,ioos:station:USF.COMPS:C13:1,2015-03-03T00:35:00Z,26.0630,-83.0730,1020.49,1111122 
COMPS,ioos:station:USF.COMPS:C13:1,2015-03-03T01:05:00Z,26.0630,-83.0730,1020.61,1111122 
COMPS,ioos:station:USF.COMPS:C13:1,2015-03-03T01:35:00Z,26.0630,-83.0730,1020.8,1111122 
COMPS,ioos:station:USF.COMPS:C13:1,2015-03-03T02:05:00Z,26.0630,-83.0730,1021.18,1111122 
COMPS,ioos:station:USF.COMPS:C13:1,2015-03-03T02:35:00Z,26.0630,-83.0730,1021.26,1111122 
COMPS,ioos:station:USF.COMPS:C13:1,2015-03-03T03:05:00Z,26.0630,-83.0730,1021.31,1111122 
COMPS,ioos:station:USF.COMPS:C13:1,2015-03-03T03:35:00Z,26.0630,-83.0730,1021.33,1111122 
COMPS,ioos:station:USF.COMPS:C13:1,2015-03-03T04:05:00Z,26.0630,-83.0730,1021.35,1111122 
COMPS,ioos:station:USF.COMPS:C13:1,2015-03-03T04:35:00Z,26.0630,-83.0730,1021.35,1111122 
COMPS,ioos:station:USF.COMPS:C13:1,2015-03-03T05:05:00Z,26.0630,-83.0730,1021.03,1111122 
COMPS,ioos:station:USF.COMPS:C13:1,2015-03-03T05:35:00Z,26.0630,-83.0730,1020.79,1111122 
COMPS,ioos:station:USF.COMPS:C13:1,2015-03-03T06:05:00Z,26.0630,-83.0730,1020.39,1111122 
COMPS,ioos:station:USF.COMPS:C13:1,2015-03-03T06:35:00Z,26.0630,-83.0730,1020.1,1111122 
COMPS,ioos:station:USF.COMPS:C13:1,2015-03-03T07:05:00Z,26.0630,-83.0730,1019.89,1111122 
COMPS,ioos:station:USF.COMPS:C13:1,2015-03-03T07:35:00Z,26.0630,-83.0730,1019.42,1111122 
COMPS,ioos:station:USF.COMPS:C13:1,2015-03-03T08:05:00Z,26.0630,-83.0730,1019.07,1111122 
COMPS,ioos:station:USF.COMPS:C13:1,2015-03-03T08:35:00Z,26.0630,-83.0730,1019.06,1111122 
COMPS,ioos:station:USF.COMPS:C13:1,2015-03-03T09:05:00Z,26.0630,-83.0730,1019.01,1111122 
COMPS,ioos:station:USF.COMPS:C13:1,2015-03-03T09:35:00Z,26.0630,-83.0730,1018.99,1111122 
COMPS,ioos:station:USF.COMPS:C13:1,2015-03-03T10:05:00Z,26.0630,-83.0730,1019.02,1111122 
COMPS,ioos:station:USF.COMPS:C13:1,2015-03-03T10:35:00Z,26.0630,-83.0730,1019.34,1111122 
COMPS,ioos:station:USF.COMPS:C13:1,2015-03-03T11:05:00Z,26.0630,-83.0730,1019.54,1111122 
COMPS,ioos:station:USF.COMPS:C13:1,2015-03-03T11:35:00Z,26.0630,-83.0730,1019.68,1111122 
COMPS,ioos:station:USF.COMPS:C13:1,2015-03-03T12:05:00Z,26.0630,-83.0730,1019.97,1111122 
COMPS,ioos:station:USF.COMPS:C13:1,2015-03-03T12:35:00Z,26.0630,-83.0730,1020.3,1111122 
COMPS,ioos:station:USF.COMPS:C13:1,2015-03-03T13:05:00Z,26.0630,-83.0730,1020.49,1111122 
COMPS,ioos:station:USF.COMPS:C13:1,2015-03-03T13:35:00Z,26.0630,-83.0730,1020.75,1111122 
COMPS,ioos:station:USF.COMPS:C13:1,2015-03-03T14:05:00Z,26.0630,-83.0730,1020.88,1111122 
COMPS,ioos:station:USF.COMPS:C13:1,2015-03-03T14:35:00Z,26.0630,-83.0730,1020.83,1111122 
COMPS,ioos:station:USF.COMPS:C13:1,2015-03-03T15:05:00Z,26.0630,-83.0730,1021.13,1111122 
COMPS,ioos:station:USF.COMPS:C13:1,2015-03-03T15:35:00Z,26.0630,-83.0730,1020.9,1111122 
COMPS,ioos:station:USF.COMPS:C13:1,2015-03-03T16:05:00Z,26.0630,-83.0730,1020.71,1111122 
COMPS,ioos:station:USF.COMPS:C13:1,2015-03-03T16:35:00Z,26.0630,-83.0730,1020.5,1111122 
COMPS,ioos:station:USF.COMPS:C13:1,2015-03-03T17:05:00Z,26.0630,-83.0730,1020.27,1111122 
COMPS,ioos:station:USF.COMPS:C13:1,2015-03-03T17:35:00Z,26.0630,-83.0730,1019.74,1111122 
COMPS,ioos:station:USF.COMPS:C13:1,2015-03-03T18:05:00Z,26.0630,-83.0730,1019.32,1111122 
COMPS,ioos:station:USF.COMPS:C13:1,2015-03-03T18:35:00Z,26.0630,-83.0730,1018.9,1111122 
COMPS,ioos:station:USF.COMPS:C13:1,2015-03-03T19:05:00Z,26.0630,-83.0730,1018.45,1111122 
COMPS,ioos:station:USF.COMPS:C13:1,2015-03-03T19:35:00Z,26.0630,-83.0730,1018.1,1111122 
COMPS,ioos:station:USF.COMPS:C13:1,2015-03-03T20:05:00Z,26.0630,-83.0730,1017.77,1111122 
COMPS,ioos:station:USF.COMPS:C13:1,2015-03-03T20:35:00Z,26.0630,-83.0730,1017.44,1111122 
COMPS,ioos:station:USF.COMPS:C13:1,2015-03-03T21:05:00Z,26.0630,-83.0730,1017.29,1111122 
COMPS,ioos:station:USF.COMPS:C13:1,2015-03-03T21:35:00Z,26.0630,-83.0730,1017.29,1111122 
COMPS,ioos:station:USF.COMPS:C13:1,2015-03-03T22:05:00Z,26.0630,-83.0730,1017.15,1111122 
COMPS,ioos:station:USF.COMPS:C13:1,2015-03-03T22:35:00Z,26.0630,-83.0730,1017.15,1111122 
COMPS,ioos:station:USF.COMPS:C13:1,2015-03-03T23:05:00Z,26.0630,-83.0730,1017.15,1111122 
COMPS,ioos:station:USF.COMPS:C13:1,2015-03-03T23:35:00Z,26.0630,-83.0730,1017.35,1111122 
COMPS,ioos:station:USF.COMPS:C13:1,2015-03-04T00:05:00Z,26.0630,-83.0730,1017.5,1111122 
COMPS,ioos:station:USF.COMPS:C13:1,2015-03-04T00:35:00Z,26.0630,-83.0730,1017.55,1111122 
COMPS,ioos:station:USF.COMPS:C13:1,2015-03-04T01:05:00Z,26.0630,-83.0730,1017.71,1111122 
COMPS,ioos:station:USF.COMPS:C13:1,2015-03-04T01:35:00Z,26.0630,-83.0730,1017.94,1111122 
COMPS,ioos:station:USF.COMPS:C13:1,2015-03-04T02:05:00Z,26.0630,-83.0730,1018.02,1111122 
COMPS,ioos:station:USF.COMPS:C13:1,2015-03-04T02:35:00Z,26.0630,-83.0730,1018.11,1111122 
COMPS,ioos:station:USF.COMPS:C13:1,2015-03-04T03:05:00Z,26.0630,-83.0730,1018.15,1111122 
COMPS,ioos:station:USF.COMPS:C13:1,2015-03-04T03:35:00Z,26.0630,-83.0730,1018.06,1111122 
COMPS,ioos:station:USF.COMPS:C13:1,2015-03-04T04:05:00Z,26.0630,-83.0730,1018.02,1111122 
COMPS,ioos:station:USF.COMPS:C13:1,2015-03-04T04:35:00Z,26.0630,-83.0730,1018.03,1111122 
COMPS,ioos:station:USF.COMPS:C13:1,2015-03-04T05:05:00Z,26.0630,-83.0730,1017.95,1111122 
COMPS,ioos:station:USF.COMPS:C13:1,2015-03-04T05:35:00Z,26.0630,-83.0730,1017.75,1111122 
COMPS,ioos:station:USF.COMPS:C13:1,2015-03-04T06:05:00Z,26.0630,-83.0730,1017.64,1111122 
COMPS,ioos:station:USF.COMPS:C13:1,2015-03-04T06:35:00Z,26.0630,-83.0730,1017.21,1111122 
COMPS,ioos:station:USF.COMPS:C13:1,2015-03-04T07:05:00Z,26.0630,-83.0730,1017.07,1111122 
COMPS,ioos:station:USF.COMPS:C13:1,2015-03-04T07:35:00Z,26.0630,-83.0730,1016.86,1111122 
COMPS,ioos:station:USF.COMPS:C13:1,2015-03-04T08:05:00Z,26.0630,-83.0730,1016.84,1111122 
COMPS,ioos:station:USF.COMPS:C13:1,2015-03-04T08:35:00Z,26.0630,-83.0730,1016.83,1111122 
COMPS,ioos:station:USF.COMPS:C13:1,2015-03-04T09:05:00Z,26.0630,-83.0730,1016.75,1111122 
COMPS,ioos:station:USF.COMPS:C13:1,2015-03-04T09:35:00Z,26.0630,-83.0730,1016.87,1111122 
COMPS,ioos:station:USF.COMPS:C13:1,2015-03-04T10:05:00Z,26.0630,-83.0730,1016.89,1111122 
COMPS,ioos:station:USF.COMPS:C13:1,2015-03-04T10:35:00Z,26.0630,-83.0730,1017.03,1111122 
COMPS,ioos:station:USF.COMPS:C13:1,2015-03-04T11:05:00Z,26.0630,-83.0730,1017.29,1111122 
COMPS,ioos:station:USF.COMPS:C13:1,2015-03-04T11:35:00Z,26.0630,-83.0730,1017.44,1111122 
COMPS,ioos:station:USF.COMPS:C13:1,2015-03-04T12:05:00Z,26.0630,-83.0730,1017.64,1111122 
COMPS,ioos:station:USF.COMPS:C13:1,2015-03-04T12:35:00Z,26.0630,-83.0730,1017.82,1111122 
COMPS,ioos:station:USF.COMPS:C13:1,2015-03-04T13:05:00Z,26.0630,-83.0730,1018.22,1111122 
COMPS,ioos:station:USF.COMPS:C13:1,2015-03-04T13:35:00Z,26.0630,-83.0730,1018.44,1111122 
COMPS,ioos:station:USF.COMPS:C13:1,2015-03-04T14:05:00Z,26.0630,-83.0730,1018.53,1111122 
COMPS,ioos:station:USF.COMPS:C13:1,2015-03-04T14:35:00Z,26.0630,-83.0730,1018.82,1111122 
COMPS,ioos:station:USF.COMPS:C13:1,2015-03-04T15:05:00Z,26.0630,-83.0730,1018.88,1111122 
COMPS,ioos:station:USF.COMPS:C13:1,2015-03-04T15:35:00Z,26.0630,-83.0730,1018.79,1111122 
COMPS,ioos:station:USF.COMPS:C13:1,2015-03-04T16:05:00Z,26.0630,-83.0730,1018.92,1111122 
COMPS,ioos:station:USF.COMPS:C13:1,2015-03-04T16:35:00Z,26.0630,-83.0730,1018.74,1111122 
COMPS,ioos:station:USF.COMPS:C13:1,2015-03-04T17:05:00Z,26.0630,-83.0730,1018.46,1111122 
COMPS,ioos:station:USF.COMPS:C13:1,2015-03-04T17:35:00Z,26.0630,-83.0730,1018.17,1111122 
COMPS,ioos:station:USF.COMPS:C13:1,2015-03-04T18:05:00Z,26.0630,-83.0730,1017.77,1111122 
COMPS,ioos:station:USF.COMPS:C13:1,2015-03-04T18:35:00Z,26.0630,-83.0730,1017.34,1111122 
COMPS,ioos:station:USF.COMPS:C13:1,2015-03-04T19:05:00Z,26.0630,-83.0730,1017.01,1111122 
COMPS,ioos:station:USF.COMPS:C13:1,2015-03-04T19:35:00Z,26.0630,-83.0730,1016.62,1111122 
COMPS,ioos:station:USF.COMPS:C13:1,2015-03-04T20:05:00Z,26.0630,-83.0730,1016.32,1111122 
COMPS,ioos:station:USF.COMPS:C13:1,2015-03-04T20:35:00Z,26.0630,-83.0730,1016.2,1111122 
COMPS,ioos:station:USF.COMPS:C13:1,2015-03-04T21:05:00Z,26.0630,-83.0730,1016.07,1111122 
COMPS,ioos:station:USF.COMPS:C13:1,2015-03-04T21:35:00Z,26.0630,-83.0730,1015.88,1111122 
COMPS,ioos:station:USF.COMPS:C13:1,2015-03-04T22:05:00Z,26.0630,-83.0730,1015.93,1111122 
COMPS,ioos:station:USF.COMPS:C13:1,2015-03-04T22:35:00Z,26.0630,-83.0730,1015.79,1111122 
COMPS,ioos:station:USF.COMPS:C13:1,2015-03-04T23:05:00Z,26.0630,-83.0730,1015.91,1111122 
COMPS,ioos:station:USF.COMPS:C13:1,2015-03-04T23:35:00Z,26.0630,-83.0730,1015.85,1111122 
COMPS,ioos:station:USF.COMPS:C13:1,2015-03-05T00:05:00Z,26.0630,-83.0730,1015.81,1111122 
COMPS,ioos:station:USF.COMPS:C13:1,2015-03-05T00:35:00Z,26.0630,-83.0730,1016.08,1111122 
COMPS,ioos:station:USF.COMPS:C13:1,2015-03-05T01:05:00Z,26.0630,-83.0730,1016.2,1111122 
COMPS,ioos:station:USF.COMPS:C13:1,2015-03-05T01:35:00Z,26.0630,-83.0730,1016.35,1111122 
COMPS,ioos:station:USF.COMPS:C13:1,2015-03-05T02:05:00Z,26.0630,-83.0730,1016.46,1111122 
COMPS,ioos:station:USF.COMPS:C13:1,2015-03-05T02:35:00Z,26.0630,-83.0730,1016.51,1111122 
COMPS,ioos:station:USF.COMPS:C13:1,2015-03-05T03:05:00Z,26.0630,-83.0730,1016.22,1111122 
COMPS,ioos:station:USF.COMPS:C13:1,2015-03-05T03:35:00Z,26.0630,-83.0730,1016.24,1111122 
COMPS,ioos:station:USF.COMPS:C13:1,2015-03-05T04:05:00Z,26.0630,-83.0730,1016.37,1111122 
COMPS,ioos:station:USF.COMPS:C13:1,2015-03-05T04:35:00Z,26.0630,-83.0730,1016.31,1111122 
COMPS,ioos:station:USF.COMPS:C13:1,2015-03-05T05:05:00Z,26.0630,-83.0730,1016.0,1111122 
COMPS,ioos:station:USF.COMPS:C13:1,2015-03-05T05:35:00Z,26.0630,-83.0730,1015.84,1111122 
COMPS,ioos:station:USF.COMPS:C13:1,2015-03-05T06:05:00Z,26.0630,-83.0730,1015.73,1111122 
COMPS,ioos:station:USF.COMPS:C13:1,2015-03-05T06:35:00Z,26.0630,-83.0730,1015.48,1111122 
COMPS,ioos:station:USF.COMPS:C13:1,2015-03-05T08:05:00Z,26.0630,-83.0730,1014.5,1111122 
COMPS,ioos:station:USF.COMPS:C13:1,2015-03-05T08:35:00Z,26.0630,-83.0730,1014.42,1111122 
COMPS,ioos:station:USF.COMPS:C13:1,2015-03-05T09:05:00Z,26.0630,-83.0730,1014.19,1111122 
COMPS,ioos:station:USF.COMPS:C13:1,2015-03-05T09:35:00Z,26.0630,-83.0730,1014.25,1111122 
COMPS,ioos:station:USF.COMPS:C13:1,2015-03-05T10:05:00Z,26.0630,-83.0730,1014.53,1111122 
COMPS,ioos:station:USF.COMPS:C13:1,2015-03-05T10:35:00Z,26.0630,-83.0730,1014.91,1111122 
COMPS,ioos:station:USF.COMPS:C13:1,2015-03-05T11:05:00Z,26.0630,-83.0730,1015.19,1111122 
COMPS,ioos:station:USF.COMPS:C13:1,2015-03-05T11:35:00Z,26.0630,-83.0730,1015.57,1111122 
COMPS,ioos:station:USF.COMPS:C13:1,2015-03-05T12:05:00Z,26.0630,-83.0730,1015.97,1111122 
COMPS,ioos:station:USF.COMPS:C13:1,2015-03-05T12:35:00Z,26.0630,-83.0730,1016.36,1111122 
COMPS,ioos:station:USF.COMPS:C13:1,2015-03-05T13:05:00Z,26.0630,-83.0730,1016.79,1111122 
COMPS,ioos:station:USF.COMPS:C13:1,2015-03-05T13:35:00Z,26.0630,-83.0730,1017.02,1111122 
COMPS,ioos:station:USF.COMPS:C13:1,2015-03-05T15:05:00Z,26.0630,-83.0730,1018.25,1111122 
COMPS,ioos:station:USF.COMPS:C13:1,2015-03-05T15:35:00Z,26.0630,-83.0730,1018.51,1111122 
COMPS,ioos:station:USF.COMPS:C13:1,2015-03-05T17:05:00Z,26.0630,-83.0730,1018.72,1111122 
COMPS,ioos:station:USF.COMPS:C13:1,2015-03-05T17:35:00Z,26.0630,-83.0730,1018.45,1111122 
COMPS,ioos:station:USF.COMPS:C13:1,2015-03-05T18:05:00Z,26.0630,-83.0730,1018.0,1111122 
COMPS,ioos:station:USF.COMPS:C13:1,2015-03-05T18:35:00Z,26.0630,-83.0730,1017.7,1111122 
COMPS,ioos:station:USF.COMPS:C13:1,2015-03-05T19:05:00Z,26.0630,-83.0730,1017.56,1111122 
COMPS,ioos:station:USF.COMPS:C13:1,2015-03-05T19:35:00Z,26.0630,-83.0730,1017.32,1111122 
COMPS,ioos:station:USF.COMPS:C13:1,2015-03-05T20:05:00Z,26.0630,-83.0730,1017.01,1111122 
COMPS,ioos:station:USF.COMPS:C13:1,2015-03-05T20:35:00Z,26.0630,-83.0730,1016.8,1111122 
COMPS,ioos:station:USF.COMPS:C13:1,2015-03-05T21:05:00Z,26.0630,-83.0730,1016.77,1111122 
COMPS,ioos:station:USF.COMPS:C13:1,2015-03-05T21:35:00Z,26.0630,-83.0730,1016.72,1111122 
COMPS,ioos:station:USF.COMPS:C13:1,2015-03-05T22:05:00Z,26.0630,-83.0730,1016.97,1111122 
COMPS,ioos:station:USF.COMPS:C13:1,2015-03-05T22:35:00Z,26.0630,-83.0730,1017.17,1111122 
COMPS,ioos:station:USF.COMPS:C13:1,2015-03-05T23:05:00Z,26.0630,-83.0730,1017.44,1111122 
COMPS,ioos:station:USF.COMPS:C13:1,2015-03-05T23:35:00Z,26.0630,-83.0730,1017.72,1111122 
COMPS,ioos:station:USF.COMPS:C13:1,2015-03-06T00:05:00Z,26.0630,-83.0730,1017.83,1111122 
COMPS,ioos:station:USF.COMPS:C13:1,2015-03-06T00:35:00Z,26.0630,-83.0730,1017.99,1111122 
COMPS,ioos:station:USF.COMPS:C13:1,2015-03-06T01:05:00Z,26.0630,-83.0730,1018.46,1111122 
COMPS,ioos:station:USF.COMPS:C13:1,2015-03-06T01:35:00Z,26.0630,-83.0730,1018.71,1111122 
COMPS,ioos:station:USF.COMPS:C13:1,2015-03-06T02:05:00Z,26.0630,-83.0730,1018.95,1111122 
COMPS,ioos:station:USF.COMPS:C13:1,2015-03-06T02:35:00Z,26.0630,-83.0730,1019.06,1111122 
COMPS,ioos:station:USF.COMPS:C13:1,2015-03-06T03:05:00Z,26.0630,-83.0730,1019.33,1111122 
COMPS,ioos:station:USF.COMPS:C13:1,2015-03-06T03:35:00Z,26.0630,-83.0730,1019.32,1111122 
COMPS,ioos:station:USF.COMPS:C13:1,2015-03-06T04:05:00Z,26.0630,-83.0730,1019.25,1111122 
COMPS,ioos:station:USF.COMPS:C13:1,2015-03-06T04:35:00Z,26.0630,-83.0730,1019.06,1111122 
COMPS,ioos:station:USF.COMPS:C13:1,2015-03-06T05:05:00Z,26.0630,-83.0730,1018.98,1111122 
COMPS,ioos:station:USF.COMPS:C13:1,2015-03-06T05:35:00Z,26.0630,-83.0730,1018.81,1111122 
COMPS,ioos:station:USF.COMPS:C13:1,2015-03-06T06:05:00Z,26.0630,-83.0730,1018.57,1111122 
COMPS,ioos:station:USF.COMPS:C13:1,2015-03-06T06:35:00Z,26.0630,-83.0730,1018.45,1111122 
COMPS,ioos:station:USF.COMPS:C13:1,2015-03-06T07:05:00Z,26.0630,-83.0730,1018.36,1111122 
COMPS,ioos:station:USF.COMPS:C13:1,2015-03-06T07:35:00Z,26.0630,-83.0730,1018.05,1111122 
COMPS,ioos:station:USF.COMPS:C13:1,2015-03-06T08:05:00Z,26.0630,-83.0730,1018.13,1111122 
COMPS,ioos:station:USF.COMPS:C13:1,2015-03-06T08:35:00Z,26.0630,-83.0730,1018.11,1111122 
COMPS,ioos:station:USF.COMPS:C13:1,2015-03-06T09:05:00Z,26.0630,-83.0730,1018.17,1111122 
COMPS,ioos:station:USF.COMPS:C13:1,2015-03-06T09:35:00Z,26.0630,-83.0730,1018.31,1111122 
COMPS,ioos:station:USF.COMPS:C13:1,2015-03-06T10:05:00Z,26.0630,-83.0730,1018.63,1111122 
COMPS,ioos:station:USF.COMPS:C13:1,2015-03-06T10:35:00Z,26.0630,-83.0730,1019.04,1111122 
COMPS,ioos:station:USF.COMPS:C13:1,2015-03-06T11:05:00Z,26.0630,-83.0730,1019.25,1111122 
COMPS,ioos:station:USF.COMPS:C13:1,2015-03-06T11:35:00Z,26.0630,-83.0730,1019.53,1111122 
COMPS,ioos:station:USF.COMPS:C13:1,2015-03-06T12:05:00Z,26.0630,-83.0730,1019.94,1111122 
COMPS,ioos:station:USF.COMPS:C13:1,2015-03-06T12:35:00Z,26.0630,-83.0730,1020.19,1111122 
COMPS,ioos:station:USF.COMPS:C13:1,2015-03-06T13:05:00Z,26.0630,-83.0730,1020.42,1111122 
COMPS,ioos:station:USF.COMPS:C13:1,2015-03-06T13:35:00Z,26.0630,-83.0730,1020.81,1111122 
COMPS,ioos:station:USF.COMPS:C13:1,2015-03-06T14:05:00Z,26.0630,-83.0730,1021.17,1111122 
COMPS,ioos:station:USF.COMPS:C13:1,2015-03-06T14:35:00Z,26.0630,-83.0730,1021.37,1111122 
COMPS,ioos:station:USF.COMPS:C13:1,2015-03-06T15:05:00Z,26.0630,-83.0730,1021.61,1111122 
COMPS,ioos:station:USF.COMPS:C13:1,2015-03-06T15:35:00Z,26.0630,-83.0730,1021.64,1111122 